x

Naubinway, Mi (nabm4) Weather Station

4:40pm - Sun 23rd Apr 2017 All times are CDT. -5 hours from GMT.

  • Wind
    10mph, 16mph gusts
  • Air Temp 39°f
  • Sea Pressure 1020.3mb
  • Naubinway, Mi
  • Naubinway, Mi

More Historic Weather Station data

Upgrade to MSW Pro to gain access to the past 30 days of data for over 8000 Wavebouys and Weather Stations around the globe.

Join Pro

Comparision Forecast

View Surf forecast
   
Sun 04/23 4:40pm 10 16 mph 1020.3mb 39f
4:30pm 9 16 mph 1020.7mb 39f
4:20pm 11 17 mph 1020.3mb 40f
4:10pm 14 17 mph 1020.3mb 40f
4:08pm 10 20 mph 1020mb 41f
4:00pm 13 18 mph 1020mb 40f
3:40pm 14 20 mph 1020mb 41f
3:30pm 15 18 mph 1020mb 40f
3:20pm 10 20 mph 1020mb 40f
3:10pm 11 18 mph 1020mb 41f
3:07pm 15 22 mph 1020mb 40f
3:00pm 14 18 mph 1020mb 41f
2:40pm 13 17 mph 1020.3mb 40f
2:30pm 9 18 mph 1020.3mb 40f
2:20pm 16 21 mph 1020.3mb 39f
2:10pm 13 22 mph 1020.3mb 39f
2:07pm 15 25 mph 1020.3mb 38f
2:00pm 15 20 mph 1020.3mb 38f
1:40pm 16 22 mph 1020.3mb 38f
1:20pm 16 21 mph 1020.3mb 37f
1:10pm 13 18 mph 1020.3mb 37f
1:00pm 13 18 mph 1020.7mb 37f
12:40pm 9 17 mph 1020.7mb 37f
12:30pm 14 18 mph 1020.7mb 37f
12:20pm 10 18 mph 1020.7mb 37f
12:10pm 11 20 mph 1020.3mb 37f
12:06pm 13 20 mph 1020.3mb 37f
12:00pm 13 18 mph 1020.3mb 37f
11:40am 7 14 mph 1020.3mb 37f
11:30am 10 18 mph 1020.3mb 37f
11:20am 15 18 mph 1020.3mb 37f
11:10am 14 17 mph 1020.7mb 37f
11:06am 10 17 mph 1020.7mb 37f
11:00am 8 17 mph 1020.7mb 37f
10:40am 13 17 mph 1020mb 37f
10:30am 11 16 mph 1020.3mb 37f
10:20am 11 16 mph 1020.3mb 37f
10:10am 10 18 mph 1020.3mb 37f
10:05am 15 23 mph 1020.3mb 37f
10:00am 17 23 mph 1020mb 37f
9:40am 15 23 mph 1020mb 37f
9:30am 14 20 mph 1019.6mb 37f
9:20am 15 23 mph 1019.3mb 37f
9:10am 15 21 mph 1019.3mb 37f
9:05am 11 21 mph 1019mb 37f
9:00am 13 20 mph 1019.3mb 37f
8:40am 9 17 mph 1019mb 38f
8:30am 13 18 mph 1019mb 38f
8:20am 14 21 mph 1019mb 38f
8:04am 14 24 mph 1018.6mb 39f
8:00am 18 23 mph 1018.6mb 39f
7:40am 17 24 mph 1018.3mb 39f
7:30am 11 20 mph 1018.3mb 39f
7:20am 10 16 mph 1017.9mb 39f
7:10am 10 20 mph 1018.3mb 40f
7:04am 15 22 mph 1017.9mb 40f
7:00am 13 22 mph 1017.9mb 40f
6:40am 7 14 mph 1017.6mb 40f
6:30am 7 17 mph 1017.3mb 39f
6:20am 11 17 mph 1016.9mb 39f
6:10am 8 11 mph 1016.9mb 39f
6:04am 6 14 mph 1016.9mb 39f
6:00am 6 10 mph 1016.9mb 39f
5:40am 9 11 mph 1016.3mb 39f
5:30am 5 7 mph 1016.3mb 39f
5:20am 2 5 mph 1016.3mb 39f
5:10am 3 6 mph 1015.9mb 39f
5:03am  -  6 mph 1015.9mb 38f
5:00am  -  5 mph 1015.9mb 38f
4:40am  -  3 mph 1015.6mb 38f
4:30am  -  5 mph 1015.6mb 39f
4:20am 3 6 mph 1015.6mb 38f
4:10am 2 7 mph 1015.6mb 38f
4:03am 3 7 mph 1015.2mb 37f
4:00am 2 5 mph 1015.2mb 37f
3:40am 2 3 mph 1015.2mb 36f
3:30am  -  1 mph 1014.9mb 36f
3:20am  -  1 mph 1015.2mb 37f
3:10am  -  2 mph 1014.9mb 37f
3:02am 1 6 mph 1015.2mb 37f
3:00am 2
mph
1015.2mb 37f
2:40am  -  2 mph 1015.2mb 40f
2:30am 2 5 mph 1015.2mb 40f
2:20am 2 5 mph 1015.2mb 40f
2:10am 2 6 mph 1015.2mb 41f
2:02am 2 9 mph 1014.9mb 41f
2:00am 3 6 mph 1015.2mb 41f
1:40am 5 7 mph 1015.2mb 42f
1:30am 6 9 mph 1015.2mb 42f
1:20am 8
mph
1015.6mb 43f
1:10am 6 8 mph 1015.9mb 43f
1:02am 6 9 mph 1015.9mb 43f
1:00am 3 7 mph 1015.9mb 43f
12:40am 5 8 mph 1015.9mb 40f
12:30am  -  3 mph 1016.3mb 37f
12:20am  -  2 mph 1016.3mb 40f
12:10am 1 2 mph 1016.3mb 39f
12:01am 1 2 mph 1016.3mb 39f
12:00am 1 2 mph 1016.3mb 39f
Sat 04/22 11:40pm  -  mph 1016.3mb 37f
11:30pm  -  1 mph 1016.6mb 38f
11:20pm  -  1 mph 1016.6mb 38f
11:10pm  -  1 mph 1016.6mb 39f
11:01pm  -  1 mph 1016.6mb 38f
11:00pm  -  1 mph 1016.6mb 38f
10:40pm  -  1 mph 1016.9mb 39f
10:30pm  -  1 mph 1016.9mb 39f
10:20pm  -  mph 1017.3mb 39f
10:10pm  -  1 mph 1017.3mb 39f
10:00pm  -  2 mph 1017.3mb 38f
9:40pm  -  1 mph 1017.6mb 40f
9:20pm  -  3 mph 1017.6mb 42f
9:10pm 1 3 mph 1017.9mb 42f
9:00pm 3 6 mph 1017.9mb 43f
8:40pm 5
mph
1017.9mb 43f
8:30pm  -  7 mph 1017.9mb 43f
8:20pm 5 8 mph 1017.9mb 43f
8:10pm 8 9 mph 1017.9mb 44f
8:00pm 7 9 mph 1017.9mb 43f
7:40pm 6 9 mph 1017.9mb 43f
7:30pm 8 10 mph 1017.9mb 44f
7:20pm 7 10 mph 1017.9mb 44f
7:10pm 7 10 mph 1017.9mb 43f
7:00pm 8 11 mph 1017.9mb 44f
6:40pm 6 7 mph 1017.9mb 43f
6:30pm 5 9 mph 1017.9mb 44f
6:20pm 9 13 mph 1018.3mb 44f
6:10pm 5 7 mph 1018.3mb 43f
6:00pm 5 7 mph 1018.3mb 43f
5:40pm 8 16 mph 1018.3mb 44f
5:30pm 8 16 mph 1018.3mb 44f
5:20pm 9 16 mph 1018.3mb 44f
5:10pm 3 10 mph 1018.6mb 44f
5:00pm 9 14 mph 1018.6mb 43f
4:40pm 11 15 mph 1018.6mb 43f
4:30pm 10 15 mph 1018.6mb 43f
4:20pm 11 18 mph 1018.6mb 43f
4:10pm 15 21 mph 1018.6mb 43f
4:00pm 18 22 mph 1018.6mb 43f
3:40pm 17 20 mph 1019mb 43f
3:30pm 13 17 mph 1019mb 44f
3:20pm 13 17 mph 1019.3mb 44f
3:10pm 11 17 mph 1019.3mb 43f
3:00pm 14 17 mph 1019.3mb 43f
2:40pm 16 20 mph 1019.6mb 42f
2:30pm 18 21 mph 1019.6mb 42f
2:20pm 14 17 mph 1020mb 42f
2:10pm 16 18 mph 1020mb 43f
2:00pm 13 16 mph 1020mb 42f
1:40pm 10 13 mph 1020.3mb 42f
1:30pm 9 11 mph 1020.7mb 42f
1:20pm 7 9 mph 1020.7mb 42f
1:10pm 6 7 mph 1021mb 42f
1:00pm 3 5 mph 1021mb 43f
12:40pm 5 7 mph 1021.3mb 42f
12:30pm 5 7 mph 1021.3mb 42f
12:20pm 3 6 mph 1021.3mb 42f
12:10pm 3 6 mph 1021.7mb 43f
12:00pm 3 5 mph 1021.7mb 43f
11:40am 5 8 mph 1021.7mb 42f
11:30am 6 7 mph 1021.7mb 42f
11:20am 6 7 mph 1021.7mb 42f
11:10am 6 8 mph 1021.7mb 41f
11:00am 7 8 mph 1022mb 41f
10:40am 7 8 mph 1022mb 41f
10:30am 7 9 mph 1022mb 41f
10:20am 7 9 mph 1022mb 42f
10:10am 8 9 mph 1022mb 42f
10:00am 5 7 mph 1022mb 42f
9:40am 3 7 mph 1022mb 42f
9:30am 6 7 mph 1022mb 42f
9:20am 3 6 mph 1022mb 42f
9:10am 5 6 mph 1022mb 42f
9:00am 5
mph
1022mb 43f
8:40am 3
mph
1021.7mb 42f
8:30am 2 3 mph 1022mb 42f
8:20am 2 3 mph 1022mb 42f
8:10am 3
mph
1022mb 41f
8:00am  -  1 mph 1022mb 43f
7:40am  -  3 mph 1021.7mb 44f
7:30am  -  3 mph 1021.7mb 43f
7:24am 2 6 mph 1021.7mb 42f
7:20am 3 5 mph 1021.7mb 42f
7:10am 3 6 mph 1021.7mb 40f
7:00am 3 6 mph 1021.7mb 40f
6:40am 3 6 mph 1021.3mb 38f
6:30am 3 6 mph 1021.3mb 37f
6:24am 2 5 mph 1021.3mb 37f
6:20am 1 3 mph 1021.3mb 37f
6:10am 1 2 mph 1021mb 36f
6:00am  -  2 mph 1021mb 36f
5:40am  -  3 mph 1021mb 35f
5:30am 3 5 mph 1021mb 36f
5:24am 1 11 mph 1020.7mb 36f
5:20am  -  5 mph 1020.7mb 36f
5:10am 3 5 mph 1020.7mb 37f
5:00am  -  3 mph 1020.7mb 37f
4:40am 1 3 mph 1020.7mb 37f
4:30am 5 11 mph 1020.7mb 37f
4:23am 8 14 mph 1020.3mb 38f
4:20am 9 11 mph 1020.3mb 38f
4:10am 8 13 mph 1020.3mb 38f
4:00am 9 13 mph 1020.3mb 38f
3:40am 10 14 mph 1020.3mb 38f
3:30am 10 13 mph 1020.3mb 38f
3:23am 9 14 mph 1020.3mb 38f
3:20am 9 14 mph 1020.3mb 38f
3:10am 9 13 mph 1020.3mb 38f
3:00am 7 11 mph 1020.3mb 38f
2:40am  -  2 mph 1020.7mb 35f
2:30am 2 5 mph 1020.7mb 35f
2:22am 3 9 mph 1020.7mb 35f
2:20am 3 7 mph 1020.7mb 35f
2:10am 3 5 mph 1020.7mb 35f
2:00am 1 3 mph 1020.3mb 37f
1:40am 6 8 mph 1020.3mb 38f
1:30am 7 9 mph 1020mb 38f
1:22am 6 8 mph 1020mb 38f
1:20am 6 8 mph 1020mb 38f
1:10am 3 7 mph 1020mb 37f
1:00am 3 6 mph 1020mb 36f
12:40am 3 5 mph 1020mb 34f
12:30am 3
mph
1020mb 33f
12:22am 3 5 mph 1020mb 34f
12:20am 3 5 mph 1020mb 34f
12:10am 3
mph
1020mb 35f
12:00am 2
mph
1020.3mb 37f
Fri 04/21 11:40pm  -  2 mph 1020mb 37f
11:30pm 2 3 mph 1020mb 38f
11:21pm 3 15 mph 1020mb 39f
11:20pm 3 7 mph 1020mb 39f
11:10pm 3 9 mph 1020mb 39f
11:00pm 8 13 mph 1019.6mb 40f
10:40pm 9 13 mph 1019.6mb 40f
10:30pm 8 11 mph 1019.6mb 38f
10:21pm 6 13 mph 1019.6mb 38f
10:20pm 6 9 mph 1019.6mb 38f
10:10pm 7 9 mph 1019.6mb 38f
10:00pm 8 10 mph 1019.6mb 39f
9:40pm 9 13 mph 1019.6mb 39f
9:30pm 7 11 mph 1020mb 39f
9:20pm 8 14 mph 1019.6mb 40f
9:10pm 8 13 mph 1019.6mb 42f
9:00pm 10 14 mph 1019.6mb 42f
8:40pm 8 13 mph 1019.6mb 43f
8:30pm 7 11 mph 1019.6mb 43f
8:20pm 8 16 mph 1019.6mb 44f
8:10pm 9 14 mph 1019.3mb 44f
8:00pm 9 15 mph 1019.3mb 45f
7:40pm 10 14 mph 1019.3mb 45f
7:30pm 9 16 mph 1019mb 46f
7:20pm 11 14 mph 1019mb 46f
7:10pm 10 16 mph 1019mb 47f
7:00pm 11 15 mph 1019mb 47f
6:40pm 10 16 mph 1019mb 48f
6:30pm 13 18 mph 1019mb 48f
6:20pm 14 21 mph 1018.6mb 48f
6:19pm 14 28 mph 1018.6mb 48f
6:10pm 13 22 mph 1018.6mb 48f
6:00pm 14 26 mph 1018.6mb 48f
5:40pm 14 25 mph 1017.9mb 48f
5:30pm 15 26 mph 1017.9mb 48f
5:20pm 14 25 mph 1017.9mb 48f
5:19pm 16 26 mph 1017.9mb 48f
5:10pm 16 24 mph 1017.6mb 48f
5:00pm 17 22 mph 1017.9mb 49f
4:40pm 13 22 mph 1017.6mb 49f
4:30pm 15 24 mph 1017.3mb 49f
4:20pm 22 26 mph 1016.9mb 49f
4:18pm 20 29 mph 1016.9mb 50f
4:10pm 16 29 mph 1016.6mb 49f
4:00pm 16 25 mph 1016.3mb 50f
3:40pm 18 26 mph 1015.9mb 49f
3:30pm 14 24 mph 1016.3mb 48f
3:20pm 21 25 mph 1016.3mb 47f
3:18pm 20
mph
1016.3mb 47f
3:10pm 20 29 mph 1015.9mb 47f
3:00pm 20 32 mph 1015.6mb 47f
2:55pm 22 29 mph 1015.2mb 47f
2:40pm 21 31 mph 1015.6mb 46f
2:30pm 21 31 mph 1015.2mb 46f
2:20pm 22 33 mph 1014.9mb 46f
2:17pm 18
mph
1014.9mb 46f
2:10pm 23 30 mph 1015.2mb 46f
2:00pm 23 33 mph 1014.9mb 46f
1:54pm 22 30 mph 1014.9mb 46f
1:40pm 20 28 mph 1015.2mb 46f
1:30pm 15 29 mph 1015.6mb 46f
1:20pm 20 28 mph 1014.9mb 46f
1:17pm 15
mph
1015.6mb 45f
1:10pm 17 26 mph 1015.2mb 45f
1:00pm 18 30 mph 1015.2mb 45f
12:40pm 21 26 mph 1014.9mb 44f
12:30pm 17 26 mph 1015.2mb 44f
12:20pm 21 29 mph 1014.9mb 43f
12:17pm 20 29 mph 1014.9mb 44f
12:10pm 17 26 mph 1014.6mb 44f
12:00pm 15 29 mph 1014.6mb 43f
11:40am 15 23 mph 1014.2mb 42f
11:30am 20 24 mph 1013.9mb 42f
11:20am 17 23 mph 1013.5mb 41f
11:16am 16 28 mph 1013.9mb 41f
11:10am 16 25 mph 1013.9mb 41f
11:00am 16 28 mph 1013.5mb 41f
10:40am 17 26 mph 1013.2mb 40f
10:30am 17 25 mph 1013.2mb 40f
10:20am 18 24 mph 1012.9mb 40f
10:16am 15 24 mph 1012.9mb 40f
10:10am 18 23 mph 1012.9mb 40f
10:00am 13 23 mph 1012.9mb 39f
9:40am 13 24 mph 1012.5mb 39f
9:30am 15 21 mph 1012.2mb 38f
9:20am 14 22 mph 1012.2mb 38f
9:15am 17 22 mph 1012.2mb 38f
9:10am 10 17 mph 1012.2mb 38f
9:00am 10 17 mph 1012.2mb 38f
8:40am 13 21 mph 1011.9mb 38f
8:30am 16 22 mph 1011.9mb 37f
8:20am 10 21 mph 1011.5mb 37f
8:15am 11 23 mph 1011.5mb 37f
8:10am 13 20 mph 1011.5mb 37f
8:00am 13 21 mph 1011.2mb 37f
7:40am 10 17 mph 1011.2mb 37f
7:30am 15 20 mph 1010.8mb 37f
7:20am 11 20 mph 1010.8mb 37f
7:15am 9 21 mph 1010.8mb 37f
7:10am 9 15 mph 1010.8mb 37f
7:00am 10 17 mph 1010.5mb 37f
6:40am 9 17 mph 1010.5mb 36f
6:30am 11 17 mph 1010.5mb 36f
6:20am 9 14 mph 1010.2mb 37f
6:10am 8 14 mph 1010.2mb 37f
6:00am 8 17 mph 1010.2mb 37f
5:40am 10 15 mph 1009.8mb 37f
5:30am 7 11 mph 1009.8mb 37f
5:20am 8 15 mph 1009.5mb 37f
5:14am 9 15 mph 1009.5mb 37f
5:10am 9 15 mph 1009.1mb 37f
5:00am 9 14 mph 1009.1mb 37f
4:40am 6 9 mph 1009.1mb 37f
4:30am 6 10 mph 1008.8mb 37f
4:20am 8 11 mph 1008.8mb 37f
4:13am 5 13 mph 1008.5mb 37f
4:10am 6 8 mph 1008.5mb 37f
4:00am 6 8 mph 1008.1mb 37f
3:40am 7 9 mph 1007.8mb 38f
3:30am 8 10 mph 1007.8mb 38f
3:20am 8 13 mph 1007.8mb 38f
3:13am 8 15 mph 1007.8mb 38f
3:10am 9 15 mph 1007.8mb 38f
3:00am 9 14 mph 1007.8mb 38f
2:40am 9 11 mph 1007.5mb 38f
2:30am 8 13 mph 1007.8mb 38f
2:20am 9 11 mph 1007.8mb 38f
2:13am 7 11 mph 1007.5mb 38f
2:10am 7 10 mph 1007.5mb 38f
2:00am 8 11 mph 1007.5mb 39f
1:40am 9 11 mph 1007.5mb 39f
1:30am 7 10 mph 1007.5mb 39f
1:20am 7 9 mph 1007.5mb 39f
1:12am 6 10 mph 1007.5mb 39f
1:10am 7 9 mph 1007.5mb 39f
1:00am 8 10 mph 1007.5mb 39f
12:40am 6 9 mph 1007.5mb 39f
12:30am 6 8 mph 1007.5mb 39f
12:20am 6 9 mph 1007.5mb 39f
12:12am 6 8 mph 1007.5mb 39f
12:10am 6 8 mph 1007.5mb 39f
12:00am 6 8 mph 1007.5mb 39f
Thu 04/20 11:40pm 3 6 mph 1007.1mb 39f
11:30pm 3 6 mph 1007.5mb 39f
11:20pm 2 5 mph 1007.1mb 39f
11:10pm 2 5 mph 1007.5mb 39f
11:00pm 2 5 mph 1007.1mb 39f
10:40pm 5 7 mph 1007.1mb 39f
10:30pm 3 7 mph 1007.1mb 39f
10:20pm 5 7 mph 1007.1mb 39f
10:11pm 6 8 mph 1007.5mb 39f
10:10pm 6 7 mph 1007.5mb 39f
10:00pm 5 8 mph 1007.5mb 39f
9:40pm 7 8 mph 1007.5mb 39f
9:30pm 6 8 mph 1007.5mb 39f
9:20pm 5 8 mph 1007.8mb 39f
9:11pm 6 24 mph 1007.8mb 39f
9:10pm 6 10 mph 1007.8mb 39f
9:00pm 8 10 mph 1007.5mb 39f
8:40pm 11 20 mph 1007.5mb 39f
8:30pm 16 20 mph 1007.5mb 39f
8:20pm 15 24 mph 1007.5mb 39f
8:10pm 22 29 mph 1007.5mb 39f
8:00pm 23 29 mph 1007.5mb 39f
7:40pm 24 30 mph 1007.1mb 39f
7:30pm 23 31 mph 1007.5mb 39f
7:20pm 28 31 mph 1007.5mb 39f
7:10pm 26 30 mph 1007.5mb 39f
7:00pm 22 29 mph 1007.8mb 39f
6:40pm 26 33 mph 1007.8mb 39f
6:30pm 26 33 mph 1007.8mb 39f
6:20pm 28 33 mph 1007.8mb 39f
6:10pm 24 32 mph 1008.1mb 39f
6:09pm 25
mph
1008.1mb 39f
6:00pm 28 36 mph 1008.5mb 39f
5:40pm 25 38 mph 1008.5mb 39f
5:30pm 28 37 mph 1007.8mb 39f
5:20pm 33 40 mph 1007.5mb 39f
5:10pm 29 40 mph 1007.5mb 39f
5:09pm 33
mph
1007.5mb 39f
5:00pm 31 40 mph 1007.5mb 39f
4:40pm 30 40 mph 1007.8mb 39f
4:30pm 36 43 mph 1007.5mb 39f
4:20pm 32 44 mph 1008.1mb 39f
4:10pm 33 40 mph 1008.1mb 39f
4:08pm 31
mph
1008.5mb 39f
4:00pm 31 41 mph 1008.5mb 39f
3:47pm 33 41 mph 1007.1mb 39f
3:40pm 30 40 mph 1007.8mb 39f
3:30pm 32 40 mph 1008.5mb 39f
3:20pm 29 36 mph 1008.8mb 39f
3:11pm 31 36 mph 1008.8mb 39f
3:10pm 31 38 mph 1008.8mb 39f
3:00pm 25 34 mph 1009.5mb 39f
2:40pm 29 41 mph 1009.5mb 39f
2:30pm 30 37 mph 1009.8mb 39f
2:20pm 29 43 mph 1010.5mb 39f
2:11pm 29 43 mph 1009.5mb 39f
2:10pm 29 38 mph 1010.2mb 39f
2:00pm 29 38 mph 1010.5mb 39f
1:55pm 33
mph
1010.2mb 39f
1:40pm 29 37 mph 1010.5mb 39f
1:30pm 31 39 mph 1010.8mb 39f
1:20pm 32 39 mph 1010.8mb 39f
1:10pm 29 37 mph 1010.8mb 39f
1:07pm 29
mph
1010.5mb 39f
1:00pm 30 41 mph 1010.8mb 39f
12:40pm 32 37 mph 1011.2mb 39f
12:30pm 28 38 mph 1012.2mb 39f
12:23pm 32
mph
1011.9mb 39f
12:20pm 30 40 mph 1012.2mb 39f
12:10pm 30 44 mph 1011.9mb 39f
12:06pm 36
mph
1011.9mb 39f
12:00pm 34 43 mph 1011.5mb 39f
11:40am 33 41 mph 1012.5mb 39f
11:30am 32 43 mph 1012.9mb 39f
11:20am 29 37 mph 1013.5mb 40f
11:10am 25 36 mph 1013.9mb 40f
11:06am 30
mph
1013.2mb 39f
11:00am 30 37 mph 1013.5mb 39f
10:40am 29 38 mph 1013.9mb 39f
10:30am 29 33 mph 1013.9mb 40f
10:20am 26 36 mph 1014.6mb 39f
10:10am 24 34 mph 1014.6mb 39f
10:05am 30
mph
1014.6mb 39f
10:00am 30 32 mph 1014.6mb 39f
9:40am 29 34 mph 1014.9mb 40f
9:30am 24 36 mph 1014.9mb 40f
9:20am 29 36 mph 1015.2mb 40f
9:10am 31 34 mph 1015.2mb 40f
9:05am 24
mph
1015.9mb 40f
9:00am 26 37 mph 1016.3mb 40f
8:40am 30 36 mph 1015.6mb 40f
8:30am 29 37 mph 1015.6mb 40f
8:20am  -  mph 1015.6mb 40f
8:10am  -  mph 1016.3mb 40f
8:00am  -  mph 1016.3mb 40f
7:40am  -  mph 1016.3mb 40f
7:30am  -  mph 1016.6mb 40f
7:20am  -  mph 1016.6mb 40f
7:10am  -  mph 1016.6mb 40f
7:04am  -  mph 1016.6mb 40f
7:00am  -  mph 1016.6mb 40f
6:40am  -  mph 1017.6mb 40f
6:30am  -  mph 1016.9mb 40f
6:20am  -  mph 1017.9mb 40f
6:10am  -  mph 1017.6mb 40f
6:04am  -  mph 1016.9mb 40f
6:00am  -  mph 1016.9mb 40f
5:40am  -  mph 1018.3mb 40f
5:30am  -  mph 1018.3mb 40f
5:20am  -  mph 1018.3mb 40f
5:10am  -  mph 1018.6mb 40f
5:03am  -  mph 1018.6mb 40f
5:00am  -  mph 1019mb 40f
4:40am  -  mph 1018.3mb 40f
4:30am  -  mph 1017.9mb 40f
4:20am  -  mph 1017.9mb 40f
4:10am  -  mph 1018.6mb 40f
4:03am  -  mph 1019mb 40f
4:00am  -  mph 1019.3mb 40f
3:40am  -  mph 1018.6mb 40f
3:30am  -  mph 1019mb 41f
3:20am  -  mph 1019.3mb 41f
3:10am  -  mph 1020mb 41f
3:02am  -  mph 1020.7mb 41f
3:00am  -  mph 1020.7mb 41f
2:40am  -  mph 1019.6mb 41f
2:30am  -  mph 1019mb 41f
2:20am  -  mph 1019mb 41f
2:10am  -  mph 1018.3mb 41f
2:02am  -  mph 1018.3mb 41f
2:00am  -  mph 1018.3mb 41f
1:40am  -  mph 1019.3mb 41f
1:30am  -  mph 1019.6mb 41f
1:20am  -  mph 1020mb 41f
1:10am  -  mph 1020.3mb 42f
1:02am  -  mph 1020.7mb 42f
1:00am  -  mph 1021mb 42f
12:40am  -  mph 1021.3mb 42f
12:30am  -  mph 1020.7mb 42f
12:20am  -  mph 1020.3mb 42f
12:10am  -  mph 1020.7mb 42f
12:01am  -  mph 1020.7mb 42f
12:00am  -  mph 1020.7mb 42f
Wed 04/19 11:40pm  -  mph 1020.3mb 42f
11:30pm  -  mph 1020.3mb 42f
11:20pm  -  mph 1020mb 41f
11:10pm  -  mph 1020.3mb 41f
11:01pm  -  mph 1022.4mb 41f
11:00pm  -  mph 1020.7mb 41f